Regional Weather Roundup
Issued by NWS

Home | Current Version | Previous Version | Graphics & Text | Print | Product List | Glossary On
Versions: 1 2 3 4 5 6 7 8 9 10 11 12 13 14 15 16 17 18 19 20 21 22 23 24 25 26 27 28 29 30 31 32 33 34 35 36 37 38 39 40 41 42 43 44 45 46 47 48 49 50
000
ASUS43 KLMK 211210
RWRKY
KENTUCKY REGIONAL WEATHER ROUNDUP
NATIONAL WEATHER SERVICE LOUISVILLE KY
800 AM EDT SAT APR 21 2018

NOTE "FAIR" INDICATES FEW OR NO CLOUDS BELOW 12,000 FEET
WITH NO SIGNIFICANT WEATHER AND/OR OBSTRUCTIONS TO VISIBILITY.

KYZ001>023-026-027-061>063-070>075-211300-
WESTERN AND SOUTH CENTRAL KENTUCKY

CITY           SKY/WX    TMP DP  RH WIND       PRES   REMARKS
PADUCAH        FAIR      44  34  67 E5        30.30R
HENDERSON      FAIR      46  33  60 E8        30.36R
OWENSBORO      FAIR      47  28  47 E9        30.36R
HOPKINSVILLE   FAIR      46  30  54 E7        30.31R
BOWLING GREEN  FAIR      44  32  62 NE3       30.34R
GLASGOW        FAIR      43  29  59 NE6       30.35R
$$

KYZ024-025-028>034-038-045-046-053-211300-
NORTH CENTRAL KENTUCKY

CITY           SKY/WX    TMP DP  RH WIND       PRES   REMARKS
LOUISVILLE/SDF FAIR      46  27  47 E7        30.39R
LOUISVILLE/LOU FAIR      45  29  53 E8        30.40R
FORT KNOX      FAIR      45  26  47 E7        30.38S
$$

KYZ035>037-039>044-047>052-055>060-089>105-211300-
NORTHEAST KENTUCKY

CITY           SKY/WX    TMP DP  RH WIND       PRES   REMARKS
LEXINGTON      FAIR      44  26  49 E10       30.40R
COVINGTON      PTSUNNY   43  25  49 E8        30.43R
FRANKFORT      FAIR      43  26  51 E9        30.39R
$$

KYZ054-064>069-076>088-106>120-211300-
SOUTHEAST KENTUCKY

CITY           SKY/WX    TMP DP  RH WIND       PRES   REMARKS
JACKSON        FAIR      43  24  47 VRB5      30.38S
LONDON         FAIR      40  32  73 CALM      30.37R
SOMERSET       FAIR      37  30  75 CALM      30.38R
MIDDLESBORO    FAIR      33  31  92 CALM      30.39S
MONTICELLO     FAIR      38  36  92 VRB3      30.37R
$$





USA.gov is the U.S. government's official web portal to all federal, state and local government web resources and services.